View from above orbital plane
|
View from above satellite
|
Ground track
|
The orbit data is extracted from the following two-line orbital elements,
1 40903U 15049E 22178.58330863 .00019015 00000-0 29569-3 0 9991
2 40903 97.1791 237.1321 0011261 87.0578 50.3748 15.53897396380832
Epoch (UTC): | 27 June 2022 13:59:57 |
Eccentricity: | 0.0011261 |
inclination: | 97.1791° |
perigee height: | 398 km |
apogee height: | 413 km |
right ascension of ascending node: | 237.1321° |
argument of perigee: | 87.0578° |
revolutions per day: | 15.53897396 |
mean anomaly at epoch: | 50.3748° |
orbit number at epoch: | 38083 |
The dashed part of the orbit path shows where the satellite is in the earth's shadow,
|
|